TimeEST,TemperatureF,Dew PointF,Humidity,Sea Level PressureIn,VisibilityMPH,Wind Direction,Wind SpeedMPH,Gust SpeedMPH,PrecipitationIn,Events,Conditions,WindDirDegrees,DateUTC
12:54 AM,43.0,34.0,71,29.89,10.0,WNW,9.2,-,N/A,,Clear,290,2014-01-18 05:54:00
1:54 AM,43.0,19.9,40,29.92,10.0,West,12.7,-,N/A,,Partly Cloudy,270,2014-01-18 06:54:00
2:54 AM,41.0,18.0,40,29.92,10.0,West,12.7,-,N/A,,Clear,260,2014-01-18 07:54:00
3:54 AM,39.0,19.0,45,29.93,10.0,WSW,10.4,-,N/A,,Clear,250,2014-01-18 08:54:00
4:54 AM,37.0,18.0,46,29.93,10.0,WSW,11.5,-,N/A,,Clear,250,2014-01-18 09:54:00
5:54 AM,36.0,17.1,46,29.95,10.0,West,11.5,20.7,N/A,,Clear,260,2014-01-18 10:54:00
6:54 AM,35.1,16.0,46,29.97,10.0,West,17.3,24.2,N/A,,Clear,270,2014-01-18 11:54:00
7:54 AM,34.0,17.1,50,30.00,10.0,West,15.0,-,N/A,,Overcast,260,2014-01-18 12:54:00
8:54 AM,35.1,17.1,48,30.04,10.0,West,11.5,-,N/A,,Overcast,270,2014-01-18 13:54:00
9:54 AM,37.0,18.0,46,30.07,10.0,West,16.1,-,N/A,,Clear,260,2014-01-18 14:54:00
10:54 AM,37.0,12.9,37,30.07,10.0,West,18.4,25.3,N/A,,Partly Cloudy,260,2014-01-18 15:54:00
11:54 AM,37.9,15.1,39,30.06,10.0,West,16.1,25.3,N/A,,Clear,280,2014-01-18 16:54:00
12:54 PM,39.0,15.1,38,30.04,10.0,West,17.3,24.2,N/A,,Clear,280,2014-01-18 17:54:00
1:54 PM,39.9,12.0,32,30.03,10.0,NW,18.4,-,N/A,,Clear,310,2014-01-18 18:54:00
2:54 PM,39.9,12.0,32,30.02,10.0,West,19.6,25.3,N/A,,Clear,280,2014-01-18 19:54:00
3:54 PM,41.0,14.0,33,30.04,10.0,WNW,11.5,-,N/A,,Clear,300,2014-01-18 20:54:00
4:54 PM,39.9,14.0,35,30.06,10.0,West,10.4,-,N/A,,Clear,270,2014-01-18 21:54:00
5:54 PM,35.1,17.1,48,30.06,10.0,Calm,Calm,-,N/A,,Clear,0,2014-01-18 22:54:00
6:54 PM,32.0,19.9,61,30.07,10.0,Calm,Calm,-,N/A,,Clear,0,2014-01-18 23:54:00
7:54 PM,28.9,21.0,72,30.07,10.0,Calm,Calm,-,N/A,,Clear,0,2014-01-19 00:54:00
8:54 PM,28.9,23.0,78,30.08,10.0,Calm,Calm,-,N/A,,Clear,0,2014-01-19 01:54:00
9:54 PM,28.0,21.9,78,30.08,10.0,Calm,Calm,-,N/A,,Clear,0,2014-01-19 02:54:00
10:54 PM,27.0,24.1,89,30.06,10.0,SSE,3.5,-,N/A,,Clear,160,2014-01-19 03:54:00
11:54 PM,30.9,19.9,64,30.06,10.0,SW,3.5,-,N/A,,Clear,230,2014-01-19 04:54:00